Regional Weather Roundup
Issued by NWS

Home | Current Version | Previous Version | Text Only | Print | Product List | Glossary Off
Versions: 1 2 3 4 5 6 7 8 9 10 11 12 13 14 15 16 17 18 19 20 21 22 23 24 25 26 27

000
ASUS45 KCYS 201610
RWRWY

WYOMING REGIONAL WEATHER ROUNDUP
NATIONAL WEATHER SERVICE CHEYENNE WY
1000 AM MDT WED SEP 20 2017

NOTE:  "FAIR" INDICATES FEW OR NO CLOUDS BELOW 12,000 FEET
WITH NO SIGNIFICANT WEATHER AND/OR OBSTRUCTIONS TO VISIBILITY.

WYZ001-201700-
YELLOWSTONE NATIONAL PARK

CITY           SKY/WX    TMP DP  RH WIND       PRES   REMARKS
LK YELLOWSTONE NOT AVBL
W YELLOWSTONE  NOT AVBL

$$
WYZ002>013-054>058-071-098>099-201700-
NORTHERN WYOMING

CITY           SKY/WX    TMP DP  RH WIND       PRES   REMARKS
JACKSON        FAIR      45  27  49 SW16G23   29.89F
CODY           FAIR      51  26  37 NW10G16   29.78F
GREYBULL       FAIR      52  31  44 SE17      29.80F
WORLAND        FAIR      54  32  43 S14       29.81F
SHERIDAN       LGT RAIN  59  20  22 SW12G25   29.74S
BUFFALO        FAIR      54  23  30 SE13G18   29.80S
GILLETTE       FAIR      53  29  39 SW22G29   29.80R
HULETT         FAIR      52  32  46 SW13      29.83F
NEWCASTLE      FAIR      50  28  43 CALM      29.89F

$$
WYZ014>020-022>026-101>103-201700-
CENTRAL WYOMING

CITY           SKY/WX    TMP DP  RH WIND       PRES   REMARKS
BIG PINEY      FAIR      40  31  70 S13       29.98S WCI  32
PINEDALE       CLOUDY    34  32  93 SE7       30.01S WCI  28
DUBOIS         FAIR      39  23  52 W25G35    29.86F WCI  28
LANDER           N/A    N/A N/A N/A MISG      29.88F
RIVERTON       FAIR      51  21  30 SW14      29.88F
CASPER         FAIR     N/A N/A N/A MISG      29.93R
DOUGLAS        FAIR      58  20  22 W30G44    29.89F

$$
WYZ021-027>030-104>119-201700-
SOUTHERN WYOMING

CITY           SKY/WX    TMP DP  RH WIND       PRES   REMARKS
EVANSTON       FAIR      43  31  62 SW9       30.00S
KEMMERER         N/A     43  30  61 CALM      30.00S
FORT BRIDGER   FAIR      50  28  43 W8        30.03S
ROCK SPRINGS   FAIR      47  27  45 SW8       30.01S
DIXON          CLOUDY    44  34  68 SE5       30.06F
RAWLINS        FAIR      48  29  47 SW16G24   30.01S
SARATOGA       FAIR      46  30  53 S5        30.04S
LARAMIE        FAIR      49  30  48 S7        30.01R
CHEYENNE       FAIR      54  32  43 SW17G25   30.01R
TORRINGTON     FAIR      61  24  24 W16G28    29.92F
PINE BLUFFS    CLOUDY    55  32  41 SW15G21   30.01R

$$




USA.gov is the U.S. government's official web portal to all federal, state and local government web resources and services.